Skip to main content.
NOAA NWS Hourly Roundups by Site

NOAA NWS Hourly Roundups by Site

Regional Weather Roundup for Omaha, NE

To Select Another Site Choose from List

Select Site:  

000
ASUS43 KOAX 302013
RWRNE

WEATHER ROUNDUP FOR NEBRASKA
NATIONAL WEATHER SERVICE OMAHA NE
200 PM CST MON JAN 30 2023

NOTES: SATELLITE DATA IS BEING USED TO AUGMENT CLOUD COVER ABOVE
       12000 FEET.
       "FAIR" INDICATES FEW OR NO CLOUDS BELOW 12,000 FEET WITH NO
       SIGNIFICANT WEATHER AND/OR OBSTRUCTIONS TO VISIBILITY.


NEZ001>004-019>022-054>056-302100-
NEBRASKA PANHANDLE

CITY           SKY/WX    TMP DP  RH WIND       PRES   REMARKS
SCOTTSBLUFF    SUNNY      5  -5  63 SE6       30.16F WCI  -6
ALLIANCE       SUNNY      1  -6  72 SW12      30.16F WCI -16
CHADRON        SUNNY     -1  -9  68 SW3       30.22F
GORDON         SUNNY     -1  -8  71 SW12      30.18F WCI -19
KIMBALL        SUNNY      0  -8  69 SW9       30.07F WCI -15
SIDNEY         SUNNY      1  -5  75 SW10      30.13F WCI -15
$$

NEZ057>060-069>072-079>082-302100-
SOUTHWEST NEBRASKA

CITY           SKY/WX    TMP DP  RH WIND       PRES   REMARKS
NORTH PLATTE   MOSUNNY    6  -4  63 SW7       30.31F WCI  -6
GRANT          LGT SNOW   3  -2  78 S10       30.25F HAZE    WCI -12
IMPERIAL       CLOUDY     4  -4  69 SW6       30.25F WCI  -7
LEXINGTON      SUNNY      6  -4  61 CALM      30.36F
MCCOOK         SUNNY      9  -2  61 CALM      30.35F
OGALLALA       PTSUNNY    6  -1  73 SW9       30.26F WCI  -8
$$

NEZ005>010-023>029-035>040-094-302100-
NORTH CENTRAL NEBRASKA

CITY           SKY/WX    TMP DP  RH WIND       PRES   REMARKS
VALENTINE      SUNNY      2  -5  72 SW15      30.29F WCI -17
AINSWORTH      SUNNY      3  -6  68 SW10      30.30F WCI -13
BROKEN BOW     SUNNY      4  -5  66 CALM      30.33F
O`NEILL        SUNNY      3  -8  60 SW5       30.39F WCI  -6
ORD            CLOUDY     8  -4  58 CALM      30.37F
THEDFORD       SUNNY      4  -3  74 SW9       30.28F WCI -11
$$

NEZ041-046>049-061>064-073>077-083>087-302100-
SOUTH CENTRAL NEBRASKA

CITY           SKY/WX    TMP DP  RH WIND       PRES   REMARKS
GRAND ISLAND   MOSUNNY   12  -3  51 CALM      30.41F
AURORA         MOSUNNY    9  -1  63 CALM      30.41F
HASTINGS       CLOUDY    10   0  63 NW5       30.40F WCI   2
HEBRON         CLOUDY    12   0  59 NE5       30.45F WCI   4
HOLDREGE       SUNNY      6  -3  66 CALM      30.36F
KEARNEY        MOSUNNY   23   5  46 CALM      30.39F
YORK           PTSUNNY    9  -2  61 CALM      30.42F
$$

NEZ011>018-030>034-042>045-302100-
NORTHEAST NEBRASKA

CITY           SKY/WX    TMP DP  RH WIND       PRES   REMARKS
NORFOLK        CLOUDY     7  -9  48 NW6       30.43F WCI  -3
ALBION         SUNNY      7  -7  53 SE3       30.42F
BLAIR          MOSUNNY    9  -3  57 NW8       30.45F WCI  -3
COLUMBUS       SUNNY     10  -3  55 NE5       30.47F WCI   2
FREMONT        SUNNY      8  -4  56 N7        30.48F WCI  -3
TEKAMAH        SUNNY      9  -4  55 N7        30.50F WCI  -2
WAYNE          SUNNY      4  -8  56 NW5       30.46F WCI  -5
$$

NEZ050>053-065>068-078-088>093-302100-
SOUTHEAST NEBRASKA

CITY           SKY/WX    TMP DP  RH WIND       PRES   REMARKS
LINCOLN        CLOUDY    14  -3  47 NW8       30.48F WCI   3
OMAHA EPPLEY   MOSUNNY   11   2  67 N14       30.48F WCI  -5
BEATRICE       CLOUDY    13  -2  49 N3        30.45F
FALLS CITY     CLOUDY    14  -2  49 N10       30.47F WCI   1
NEBRASKA CITY  CLOUDY    14  -4  44 NE8       30.46F WCI   3
PLATTSMOUTH    CLOUDY    14  -3  48 N8        30.46F WCI   2
$$

NEZ044-045-051>053-067-302100-
OMAHA AREA

CITY           SKY/WX    TMP DP  RH WIND       PRES   REMARKS
OMAHA EPPLEY   MOSUNNY   11   2  67 N14       30.48F WCI  -5
BLAIR          MOSUNNY    9  -3  57 NW8       30.45F WCI  -3
FREMONT        SUNNY      8  -4  56 N7        30.48F WCI  -3
MILLARD        MOSUNNY   12   0  58 N8        30.48F WCI   0
OFFUTT AFB     CLOUDY    14  -5  44 NW13      30.50F WCI  -1
PLATTSMOUTH    CLOUDY    14  -3  48 N8        30.46F WCI   2
WAHOO            N/A     11   0  61 N6        30.48F WCI   1
$$


 

View Past Reports for Omaha, NE.

Products Courtesy of NOAA-NWS
NWS Information Parsing Script by Ken True at Saratoga Weather - Script by SE Lincoln Weather.